Location: Izdebno
(52.6670°N, 16.2170°E)
Time: 22:47:53
(UTC+02:00)

Vanguard 2 Rocket - Pass Details

Date: 29 February 2024
Orbit: 555 x 3307 km, 32.9° (Epoch: 21 April)

Event Time Altitude Azimuth Distance (km) Brightness Sun altitude
Rises 19:21:20 0° 262° (W) 5,714 12.4 -17.2°
Reaches altitude 10° 19:27:12 10° 242° (WSW) 5,228 11.5 -18.0°
Maximum altitude 19:34:54 15° 213° (SSW) 5,292 11.0 -19.2°
Drops below altitude 10° 19:43:48 10° 185° (S) 6,136 11.0 -20.5°
Sets 19:52:05 0° 167° (SSE) 7,283 11.2 -21.7°
